Time,TemperatureF,DewpointF,PressureIn,WindDirection,WindDirectionDegrees,WindSpeedMPH,WindSpeedGustMPH,Humidity,HourlyPrecipIn,Conditions,Clouds,dailyrainin,SoftwareType,DateUTC
2013-01-24 00:03:00,46.0,43.0,30.33,NE,46,0.0,0.0,90,0.00,,,0.00,,2013-01-24 05:03:00,
2013-01-24 00:12:00,46.0,43.0,30.33,NE,46,0.0,0.0,90,0.00,,,0.00,,2013-01-24 05:12:00,
2013-01-24 00:22:00,46.0,44.0,30.33,NE,46,0.0,0.0,92,0.00,,,0.00,,2013-01-24 05:22:00,
2013-01-24 00:33:00,46.0,44.0,30.32,NE,46,0.0,0.0,92,0.00,,,0.00,,2013-01-24 05:33:00,
2013-01-24 00:42:00,46.0,44.0,30.32,NE,46,0.0,0.0,92,0.00,,,0.00,,2013-01-24 05:42:00,
2013-01-24 00:53:00,45.0,43.0,30.31,NE,46,0.0,0.0,92,0.00,,,0.00,,2013-01-24 05:53:00,
2013-01-24 01:02:00,45.0,43.0,30.31,NE,46,0.0,0.0,93,0.00,,,0.00,,2013-01-24 06:02:00,
2013-01-24 01:12:00,45.0,43.0,30.31,NE,46,0.0,0.0,93,0.00,,,0.00,,2013-01-24 06:12:00,
2013-01-24 01:22:00,45.0,43.0,30.31,NE,46,0.0,0.0,93,0.00,,,0.00,,2013-01-24 06:22:00,
2013-01-24 01:32:00,45.0,43.0,30.30,NE,46,0.0,0.0,94,0.00,,,0.00,,2013-01-24 06:32:00,
2013-01-24 01:42:00,45.0,43.0,30.30,NE,46,0.0,0.0,94,0.00,,,0.00,,2013-01-24 06:42:00,
2013-01-24 01:52:00,45.0,43.0,30.30,NE,46,0.0,0.0,94,0.00,,,0.00,,2013-01-24 06:52:00,
2013-01-24 02:03:00,44.0,42.0,30.30,NE,46,0.0,0.0,93,0.00,,,0.00,,2013-01-24 07:03:00,
2013-01-24 02:12:00,44.0,42.0,30.30,NE,46,0.0,0.0,93,0.00,,,0.00,,2013-01-24 07:12:00,
2013-01-24 02:23:00,44.0,42.0,30.29,NE,46,0.0,0.0,93,0.00,,,0.00,,2013-01-24 07:23:00,
2013-01-24 02:33:00,44.0,42.0,30.29,NE,46,0.0,0.0,94,0.00,,,0.00,,2013-01-24 07:33:00,
2013-01-24 02:43:00,44.0,42.0,30.29,NE,46,0.0,0.0,94,0.00,,,0.00,,2013-01-24 07:43:00,
2013-01-24 02:53:00,44.0,42.0,30.29,NE,46,0.0,0.0,94,0.00,,,0.00,,2013-01-24 07:53:00,
2013-01-24 03:02:00,44.0,43.0,30.29,NE,46,0.0,0.0,95,0.00,,,0.00,,2013-01-24 08:02:00,
2013-01-24 03:12:00,44.0,43.0,30.29,NE,46,0.0,0.0,95,0.00,,,0.00,,2013-01-24 08:12:00,
2013-01-24 03:23:00,44.0,42.0,30.29,NE,46,0.0,0.0,94,0.00,,,0.00,,2013-01-24 08:23:00,
2013-01-24 03:33:00,44.0,43.0,30.29,NE,46,0.0,0.0,95,0.00,,,0.00,,2013-01-24 08:33:00,
2013-01-24 03:43:00,44.0,43.0,30.29,NE,46,0.0,0.0,95,0.00,,,0.00,,2013-01-24 08:43:00,
2013-01-24 03:53:00,44.0,43.0,30.29,NE,46,0.0,0.0,95,0.00,,,0.00,,2013-01-24 08:53:00,
2013-01-24 04:03:00,44.0,43.0,30.29,NE,46,0.0,0.0,96,0.00,,,0.00,,2013-01-24 09:03:00,
2013-01-24 04:13:00,44.0,43.0,30.29,NE,46,0.0,0.0,96,0.00,,,0.00,,2013-01-24 09:13:00,
2013-01-24 04:23:00,44.0,43.0,30.29,NE,46,0.0,0.0,96,0.00,,,0.00,,2013-01-24 09:23:00,
2013-01-24 04:33:00,44.0,43.0,30.30,NW,322,1.0,1.0,97,0.00,,,0.00,,2013-01-24 09:33:00,
2013-01-24 04:43:00,44.0,43.0,30.30,NW,322,1.0,1.0,97,0.00,,,0.00,,2013-01-24 09:43:00,
2013-01-24 04:53:00,45.0,44.0,30.29,NW,307,0.0,0.0,98,0.00,,,0.00,,2013-01-24 09:53:00,
2013-01-24 05:03:00,45.0,44.0,30.29,NW,307,0.0,0.0,97,0.00,,,0.00,,2013-01-24 10:03:00,
2013-01-24 05:12:00,45.0,44.0,30.29,NW,307,0.0,0.0,97,0.00,,,0.00,,2013-01-24 10:12:00,
2013-01-24 05:23:00,45.0,44.0,30.30,NW,307,0.0,0.0,97,0.00,,,0.00,,2013-01-24 10:23:00,
2013-01-24 05:33:00,45.0,44.0,30.30,NW,307,0.0,0.0,96,0.00,,,0.00,,2013-01-24 10:33:00,
2013-01-24 05:43:00,45.0,44.0,30.30,NW,307,0.0,0.0,96,0.00,,,0.00,,2013-01-24 10:43:00,
2013-01-24 05:53:00,45.0,44.0,30.29,NW,307,0.0,0.0,98,0.00,,,0.00,,2013-01-24 10:53:00,
2013-01-24 06:03:00,45.0,44.0,30.29,NW,307,0.0,0.0,97,0.00,,,0.00,,2013-01-24 11:03:00,
2013-01-24 06:12:00,45.0,44.0,30.29,NW,307,0.0,0.0,97,0.00,,,0.00,,2013-01-24 11:12:00,
2013-01-24 06:23:00,45.0,44.0,30.29,NW,307,0.0,0.0,97,0.00,,,0.00,,2013-01-24 11:23:00,
2013-01-24 06:33:00,44.0,43.0,30.30,NW,307,0.0,0.0,97,0.00,,,0.00,,2013-01-24 11:33:00,
2013-01-24 06:43:00,44.0,43.0,30.30,NW,307,0.0,0.0,97,0.00,,,0.00,,2013-01-24 11:43:00,
2013-01-24 06:53:00,44.0,43.0,30.30,NW,307,0.0,0.0,97,0.00,,,0.00,,2013-01-24 11:53:00,
2013-01-24 07:03:00,44.0,43.0,30.30,NW,307,0.0,0.0,97,0.00,,,0.00,,2013-01-24 12:03:00,
2013-01-24 07:12:00,44.0,43.0,30.30,NW,307,0.0,0.0,97,0.00,,,0.00,,2013-01-24 12:12:00,
2013-01-24 07:23:00,44.0,43.0,30.30,NW,307,0.0,0.0,97,0.00,,,0.00,,2013-01-24 12:23:00,
2013-01-24 07:33:00,44.0,43.0,30.30,NW,307,0.0,0.0,97,0.00,,,0.00,,2013-01-24 12:33:00,
2013-01-24 07:43:00,44.0,43.0,30.30,NW,307,0.0,0.0,97,0.00,,,0.00,,2013-01-24 12:43:00,
2013-01-24 07:53:00,43.0,42.0,30.31,NW,307,0.0,0.0,98,0.00,,,0.00,,2013-01-24 12:53:00,
2013-01-24 08:03:00,43.0,42.0,30.31,NW,307,0.0,0.0,98,0.00,,,0.00,,2013-01-24 13:03:00,
2013-01-24 08:13:00,43.0,42.0,30.31,NW,307,0.0,0.0,98,0.00,,,0.00,,2013-01-24 13:13:00,
2013-01-24 08:23:00,45.0,45.0,30.32,NW,307,0.0,0.0,99,0.00,,,0.00,,2013-01-24 13:23:00,
2013-01-24 08:33:00,47.0,47.0,30.32,NW,307,0.0,0.0,100,0.00,,,0.00,,2013-01-24 13:33:00,
2013-01-24 08:43:00,47.0,47.0,30.32,NW,307,0.0,0.0,100,0.00,,,0.00,,2013-01-24 13:43:00,
2013-01-24 08:53:00,51.0,51.0,30.33,NW,307,0.0,0.0,100,0.00,,,0.00,,2013-01-24 13:53:00,
2013-01-24 09:03:00,52.0,51.0,30.33,NW,307,0.0,0.0,97,0.00,,,0.00,,2013-01-24 14:03:00,
2013-01-24 09:12:00,52.0,51.0,30.33,NW,307,0.0,0.0,97,0.00,,,0.00,,2013-01-24 14:12:00,
2013-01-24 09:23:00,56.0,50.0,30.34,NNW,333,0.0,0.0,80,0.00,,,0.00,,2013-01-24 14:23:00,
2013-01-24 09:33:00,58.0,50.0,30.34,North,4,2.0,2.0,74,0.00,,,0.00,,2013-01-24 14:33:00,
2013-01-24 09:43:00,58.0,50.0,30.34,North,4,2.0,2.0,74,0.00,,,0.00,,2013-01-24 14:43:00,
2013-01-24 09:54:00,62.0,48.0,30.35,WNW,294,3.0,5.0,61,0.00,,,0.00,,2013-01-24 14:54:00,
2013-01-24 10:03:00,62.0,46.0,30.35,West,266,6.0,6.0,56,0.00,,,0.00,,2013-01-24 15:03:00,
2013-01-24 10:12:00,62.0,46.0,30.35,West,266,6.0,6.0,56,0.00,,,0.00,,2013-01-24 15:12:00,
2013-01-24 10:23:00,62.0,47.0,30.35,North,359,0.0,0.0,58,0.00,,,0.00,,2013-01-24 15:23:00,
2013-01-24 10:33:00,62.0,47.0,30.35,North,359,0.0,0.0,58,0.00,,,0.00,,2013-01-24 15:33:00,
2013-01-24 10:43:00,62.0,47.0,30.35,NW,319,2.0,2.0,58,0.00,,,0.00,,2013-01-24 15:43:00,
2013-01-24 10:53:00,63.0,48.0,30.35,SW,228,2.0,5.0,57,0.00,,,0.00,,2013-01-24 15:53:00,
2013-01-24 11:03:00,64.0,47.0,30.34,WNW,288,4.0,0.0,55,0.00,,,0.00,,2013-01-24 16:03:00,
2013-01-24 11:12:00,64.0,47.0,30.34,WNW,288,4.0,0.0,55,0.00,,,0.00,,2013-01-24 16:12:00,
2013-01-24 11:23:00,65.0,48.0,30.34,NNW,328,1.0,0.0,54,0.00,,,0.00,,2013-01-24 16:23:00,
2013-01-24 11:33:00,67.0,49.0,30.34,SW,231,4.0,4.0,53,0.00,,,0.00,,2013-01-24 16:33:00,
2013-01-24 11:43:00,67.0,49.0,30.34,SW,231,4.0,4.0,53,0.00,,,0.00,,2013-01-24 16:43:00,
2013-01-24 12:02:00,68.0,49.0,30.34,WSW,245,3.0,6.0,50,0.00,,,0.00,,2013-01-24 17:02:00,
2013-01-24 12:12:00,68.0,49.0,30.34,WSW,245,3.0,6.0,50,0.00,,,0.00,,2013-01-24 17:12:00,
2013-01-24 12:22:00,69.0,48.0,30.32,West,260,3.0,3.0,48,0.00,,,0.00,,2013-01-24 17:22:00,
2013-01-24 12:32:00,70.0,49.0,30.31,West,278,1.0,3.0,48,0.00,,,0.00,,2013-01-24 17:32:00,
2013-01-24 12:42:00,70.0,49.0,30.31,West,278,1.0,3.0,48,0.00,,,0.00,,2013-01-24 17:42:00,
2013-01-24 12:52:00,70.0,49.0,30.30,WNW,298,8.0,8.0,47,0.00,,,0.00,,2013-01-24 17:52:00,
2013-01-24 13:02:00,70.0,49.0,30.29,SW,215,4.0,4.0,48,0.00,,,0.00,,2013-01-24 18:02:00,
2013-01-24 13:12:00,71.0,49.0,30.28,West,260,0.0,0.0,46,0.00,,,0.00,,2013-01-24 18:12:00,
2013-01-24 13:22:00,71.0,49.0,30.28,West,260,0.0,0.0,46,0.00,,,0.00,,2013-01-24 18:22:00,
2013-01-24 13:33:00,71.0,50.0,30.27,West,263,1.0,0.0,47,0.00,,,0.00,,2013-01-24 18:33:00,
2013-01-24 13:42:00,71.0,50.0,30.27,West,263,1.0,0.0,47,0.00,,,0.00,,2013-01-24 18:42:00,
2013-01-24 13:53:00,71.0,49.0,30.27,NNW,332,4.0,5.0,45,0.00,,,0.00,,2013-01-24 18:53:00,
2013-01-24 14:02:00,71.0,49.0,30.26,North,359,4.0,9.0,45,0.00,,,0.00,,2013-01-24 19:02:00,
2013-01-24 14:12:00,71.0,49.0,30.25,North,359,2.0,0.0,45,0.00,,,0.00,,2013-01-24 19:12:00,
2013-01-24 14:22:00,71.0,49.0,30.25,North,359,2.0,0.0,45,0.00,,,0.00,,2013-01-24 19:22:00,
2013-01-24 14:33:00,71.0,48.0,30.24,WSW,246,0.0,0.0,44,0.00,,,0.00,,2013-01-24 19:33:00,
2013-01-24 14:42:00,71.0,48.0,30.25,West,270,6.0,6.0,44,0.00,,,0.00,,2013-01-24 19:42:00,
2013-01-24 14:52:00,71.0,48.0,30.25,West,270,6.0,6.0,44,0.00,,,0.00,,2013-01-24 19:52:00,
2013-01-24 15:02:00,71.0,49.0,30.24,West,263,0.0,0.0,45,0.00,,,0.00,,2013-01-24 20:02:00,
2013-01-24 15:11:00,72.0,48.0,30.24,West,259,2.0,0.0,43,0.00,,,0.00,,2013-01-24 20:11:00,
2013-01-24 15:22:00,72.0,48.0,30.24,West,259,2.0,0.0,43,0.00,,,0.00,,2013-01-24 20:22:00,
2013-01-24 15:32:00,72.0,48.0,30.24,WSW,257,4.0,5.0,43,0.00,,,0.00,,2013-01-24 20:32:00,
2013-01-24 15:42:00,72.0,48.0,30.24,WSW,242,0.0,0.0,42,0.00,,,0.00,,2013-01-24 20:42:00,
2013-01-24 15:52:00,72.0,48.0,30.24,WSW,242,0.0,0.0,42,0.00,,,0.00,,2013-01-24 20:52:00,
2013-01-24 16:02:00,71.0,47.0,30.24,North,359,5.0,5.0,43,0.00,,,0.00,,2013-01-24 21:02:00,
2013-01-24 16:12:00,71.0,47.0,30.24,SW,236,4.0,6.0,43,0.00,,,0.00,,2013-01-24 21:12:00,
2013-01-24 16:22:00,71.0,47.0,30.24,SW,236,4.0,6.0,43,0.00,,,0.00,,2013-01-24 21:22:00,
2013-01-24 16:33:00,71.0,47.0,30.24,West,270,3.0,5.0,43,0.00,,,0.00,,2013-01-24 21:33:00,
2013-01-24 16:43:00,71.0,47.0,30.24,West,270,3.0,5.0,43,0.00,,,0.00,,2013-01-24 21:43:00,
2013-01-24 16:53:00,71.0,48.0,30.24,North,359,0.0,0.0,44,0.00,,,0.00,,2013-01-24 21:53:00,
2013-01-24 17:03:00,70.0,46.0,30.24,SSW,210,6.0,6.0,43,0.00,,,0.00,,2013-01-24 22:03:00,
2013-01-24 17:12:00,70.0,47.0,30.23,SSW,210,0.0,0.0,44,0.00,,,0.00,,2013-01-24 22:12:00,
2013-01-24 17:22:00,70.0,47.0,30.23,SSW,210,0.0,0.0,44,0.00,,,0.00,,2013-01-24 22:22:00,
2013-01-24 17:32:00,69.0,47.0,30.24,WNW,288,0.0,3.0,45,0.00,,,0.00,,2013-01-24 22:32:00,
2013-01-24 17:42:00,69.0,47.0,30.24,WNW,288,0.0,3.0,45,0.00,,,0.00,,2013-01-24 22:42:00,
2013-01-24 17:53:00,69.0,48.0,30.24,SSW,211,0.0,0.0,47,0.00,,,0.00,,2013-01-24 22:53:00,
2013-01-24 18:03:00,68.0,48.0,30.24,SSW,211,0.0,0.0,48,0.00,,,0.00,,2013-01-24 23:03:00,
2013-01-24 18:12:00,68.0,48.0,30.24,SSW,211,0.0,0.0,48,0.00,,,0.00,,2013-01-24 23:12:00,
2013-01-24 18:22:00,67.0,49.0,30.24,SSW,211,0.0,0.0,52,0.00,,,0.00,,2013-01-24 23:22:00,
2013-01-24 18:32:00,66.0,48.0,30.25,SSW,211,0.0,0.0,53,0.00,,,0.00,,2013-01-24 23:32:00,
2013-01-24 18:42:00,66.0,48.0,30.25,SSW,211,0.0,0.0,53,0.00,,,0.00,,2013-01-24 23:42:00,
2013-01-24 18:52:00,64.0,48.0,30.25,SSW,211,0.0,0.0,56,0.00,,,0.00,,2013-01-24 23:52:00,
2013-01-24 19:02:00,63.0,48.0,30.26,SSW,211,0.0,0.0,59,0.00,,,0.00,,2013-01-25 00:02:00,
2013-01-24 19:12:00,63.0,48.0,30.26,SSW,211,0.0,0.0,59,0.00,,,0.00,,2013-01-25 00:12:00,
2013-01-24 19:22:00,62.0,49.0,30.26,SSW,211,0.0,0.0,62,0.00,,,0.00,,2013-01-25 00:22:00,
2013-01-24 19:32:00,61.0,50.0,30.27,SSW,211,0.0,0.0,66,0.00,,,0.00,,2013-01-25 00:32:00,
2013-01-24 19:42:00,61.0,50.0,30.27,SSW,211,0.0,0.0,66,0.00,,,0.00,,2013-01-25 00:42:00,
2013-01-24 19:53:00,60.0,49.0,30.27,SSW,211,0.0,0.0,68,0.00,,,0.00,,2013-01-25 00:53:00,
2013-01-24 20:02:00,59.0,50.0,30.27,SSW,211,0.0,0.0,71,0.00,,,0.00,,2013-01-25 01:02:00,
2013-01-24 20:12:00,59.0,51.0,30.27,SSW,211,0.0,0.0,75,0.00,,,0.00,,2013-01-25 01:12:00,
2013-01-24 20:22:00,59.0,51.0,30.27,SSW,211,0.0,0.0,75,0.00,,,0.00,,2013-01-25 01:22:00,
2013-01-24 20:32:00,59.0,51.0,30.28,South,188,2.0,3.0,76,0.00,,,0.00,,2013-01-25 01:32:00,
2013-01-24 20:42:00,59.0,51.0,30.28,South,188,2.0,3.0,76,0.00,,,0.00,,2013-01-25 01:42:00,
2013-01-24 20:52:00,59.0,51.0,30.28,SSW,208,2.0,2.0,75,0.00,,,0.00,,2013-01-25 01:52:00,
2013-01-24 21:02:00,60.0,52.0,30.28,South,188,0.0,0.0,74,0.00,,,0.00,,2013-01-25 02:02:00,
2013-01-24 21:11:00,60.0,52.0,30.28,South,188,0.0,0.0,74,0.00,,,0.00,,2013-01-25 02:11:00,
2013-01-24 21:22:00,60.0,52.0,30.29,SSE,160,0.0,0.0,75,0.00,,,0.00,,2013-01-25 02:22:00,
2013-01-24 21:32:00,59.0,51.0,30.29,SSE,160,0.0,0.0,76,0.00,,,0.00,,2013-01-25 02:32:00,
2013-01-24 21:42:00,59.0,52.0,30.29,SSW,200,1.0,0.0,78,0.00,,,0.00,,2013-01-25 02:42:00,
2013-01-24 21:53:00,59.0,52.0,30.29,SSW,200,1.0,0.0,78,0.00,,,0.00,,2013-01-25 02:53:00,
2013-01-24 22:02:00,59.0,52.0,30.29,SW,219,0.0,0.0,79,0.00,,,0.00,,2013-01-25 03:02:00,
2013-01-24 22:12:00,58.0,52.0,30.29,SW,236,0.0,0.0,81,0.00,,,0.00,,2013-01-25 03:12:00,
2013-01-24 22:22:00,58.0,52.0,30.29,SW,236,0.0,0.0,81,0.00,,,0.00,,2013-01-25 03:22:00,
2013-01-24 22:33:00,58.0,53.0,30.29,West,259,0.0,0.0,82,0.00,,,0.00,,2013-01-25 03:33:00,
2013-01-24 22:42:00,58.0,53.0,30.29,West,259,0.0,0.0,82,0.00,,,0.00,,2013-01-25 03:42:00,
2013-01-24 22:53:00,57.0,52.0,30.29,West,259,0.0,0.0,83,0.00,,,0.00,,2013-01-25 03:53:00,
2013-01-24 23:02:00,57.0,53.0,30.30,West,259,0.0,0.0,85,0.00,,,0.00,,2013-01-25 04:02:00,
2013-01-24 23:12:00,57.0,53.0,30.30,West,259,0.0,0.0,86,0.00,,,0.00,,2013-01-25 04:12:00,
2013-01-24 23:22:00,57.0,53.0,30.30,West,259,0.0,0.0,86,0.00,,,0.00,,2013-01-25 04:22:00,
2013-01-24 23:32:00,56.0,52.0,30.30,SW,221,1.0,0.0,87,0.00,,,0.00,,2013-01-25 04:32:00,
2013-01-24 23:42:00,56.0,52.0,30.30,SW,221,1.0,0.0,87,0.00,,,0.00,,2013-01-25 04:42:00,
2013-01-24 23:52:00,56.0,52.0,30.30,SW,221,0.0,0.0,87,0.00,,,0.00,,2013-01-25 04:52:00,